Miscellaneous Local Product
Issued by NWS Hastings, NE

Home | Current Version | Previous Version | Graphics & Text | Print | Product List | Glossary On
Versions: 1 2 3 4 5 6 7 8 9 10 11 12 13 14 15 16 17 18 19 20 21 22 23 24 25 26 27 28 29 30 31 32 33 34 35 36 37 38 39 40 41 42 43 44 45 46 47 48 49 50
000
AXUS43 KGID 270702
MISGRI

GID CWA HOURLY WEATHER ROUNDUP
NATIONAL WEATHER SERVICE HASTINGS NE
200 AM CDT FRI MAY 27 2016

NOTE: "FAIR" INDICATES FEW OR NO CLOUDS BELOW 12,000 FEET WITH NO
SIGNIFICANT WEATHER AND/OR OBSTRUCTIONS TO VISIBILITY.

...SOUTH CENTRAL NEBRASKA...

CITY           SKY/WX    TMP DP  RH WIND       PRES   REMARKS
GRAND ISLAND   LGT RAIN  59  55  87 E10       29.77F
HASTINGS       CLOUDY    58  54  86 SE15      29.73F
KEARNEY        CLOUDY    57  54  88 SE21G28   29.75R
ORD            CLOUDY    59  56  89 CALM      29.76F
YORK           LGT RAIN  59  55  88 S12       29.77F
AURORA         LGT RAIN  59  56  90 S13       29.79F
LEXINGTON      CLOUDY    59  56  91 SE8       29.76R
HOLDREGE       CLOUDY    58  56  91 SE14      29.73R
HEBRON         RAIN      60  59  97 SE14      29.84R

...NEBRASKA PANHANDLE...

CITY           SKY/WX    TMP DP  RH WIND       PRES   REMARKS
CHADRON        CLOUDY    47  44  90 W3        29.85R
ALLIANCE       CLOUDY    53  47  79 CALM      29.81F
SCOTTSBLUFF    CLOUDY    53  42  66 N8        29.85R
SIDNEY         CLOUDY    50  48  93 NW12      29.82R

...WESTERN AND NORTH CENTRAL NEBRASKA...

CITY           SKY/WX    TMP DP  RH WIND       PRES   REMARKS
VALENTINE      LGT RAIN  56  51  84 NE17G25   29.81F
AINSWORTH      TSTM      55  53  90 NE9       29.83R
ONEILL         MOCLDY    61  58  89 S8        29.83S
BROKEN BOW     CLOUDY    58  56  93 VRB5      29.70F
IMPERIAL       PTCLDY    53  49  86 NE7       29.74R
NORTH PLATTE   CLOUDY    57  51  80 NE30G43   29.63F
MCCOOK         PTCLDY    53  51  93 SE10      29.76R

...EASTERN NEBRASKA...

CITY           SKY/WX    TMP DP  RH WIND       PRES   REMARKS
NORFOLK        CLOUDY    60  55  83 SE7       29.78F
SO SIOUX CITY  CLOUDY    62  55  77 CALM      29.80F
TEKAMAH        CLOUDY    64  57  78 SW13      29.79F
COLUMBUS       CLOUDY    61  52  72 SE14      29.79F
ALBION         CLOUDY    61  56  84 S10G18    29.80F
OMAHA EPPLEY   CLOUDY    64  59  83 S9        29.80R
OFFUTT AFB     CLOUDY    63  60  90 S7        29.80R
MILLARD        CLOUDY    64  59  85 S5        29.81R
LINCOLN        CLOUDY    62  59  90 S12       29.81R
NEBRASKA CITY  RAIN      61  61 100 S18       29.81R
BEATRICE       RAIN      61  59  95 S12G18    29.85S
FALLS CITY     HVY RAIN  62  62 100 S8        29.85R FOG

...NORTHERN KANSAS...

CITY           SKY/WX    TMP DP  RH WIND       PRES   REMARKS
GOODLAND       CLOUDY    51  48  89 W7        29.78R
HILL CITY      CLOUDY    59  56  89 SE9       29.75F
NORTON         PTSUNNY   55  52  88 E6        29.72F
PHILLIPSBURG   CLEAR     59  59 100 E12       29.76F
SMITH CENTER   MOCLDY    57  55  94 E8        29.77F
BELOIT         CLEAR     61  57  88 SE9       29.74R
HAYS           CLOUDY    28 N/A N/A E17G24    29.73F WCI  16
RUSSELL        CLOUDY    58  57  97 E14       29.73F
CONCORDIA      CLOUDY    60  58  92 E17G30    29.74S
SALINA         CLOUDY    61  59  93 E17G24    29.77R
TOPEKA         RAIN      62  60  93 NW14G21   29.84F FOG



USA.gov is the U.S. government's official web portal to all federal, state and local government web resources and services.